Regional Weather Roundup
Issued by NWS

Home | Current Version | Previous Version | Text Only | Print | Product List | Glossary Off
Versions: 1 2 3 4 5 6 7 8 9 10 11 12 13 14 15 16 17 18 19 20 21 22 23 24 25 26 27 28 29 30 31 32 33 34 35 36 37 38 39 40 41 42 43 44 45 46 47 48

000
ASUS45 KSLC 300210
RWRUT

UTAH REGIONAL WEATHER ROUNDUP
NATIONAL WEATHER SERVICE SALT LAKE CITY UT
800 PM MDT SAT AUG 29 2015

UTZ001>011-023>025-300300-

NORTHERN UTAH

CITY           SKY/WX    TMP DP  RH WIND       PRES   REMARKS
BRIGHAM CITY   MOCLDY    87  44  22 SE5       29.87F
HILL AFB       MOCLDY    85  45  24 S10       29.93F
LOGAN          CLEAR     84  45  25 SE3       29.89F
OGDEN          MOCLDY    87  46  24 SE8       29.89F
PROVO AIRPORT  PTCLDY    84  46  26 SE6       29.94S
SALT LAKE CITY MOCLDY    91  41  17 S9        29.87F
VERNAL         PTCLDY    81  43  26 CALM      30.05F
WENDOVER       MOCLDY    93  36  13 SW16      29.84S
HEBER CITY     MOCLDY    82  36  18 S5        30.03S
WEST JORDAN    CLEAR     84  45  24 S9        29.92F

$$

UTZ012>022-026-027-300300-

SOUTHERN/CENTRAL UTAH

CITY           SKY/WX    TMP DP  RH WIND       PRES   REMARKS
BLANDING       PTCLDY    80  33  18 S5        30.22S
BRYCE CANYON   CLEAR     68  42  38 S7        30.29S
CEDAR CITY     PTCLDY    81  43  26 SW22G31   30.09R
DELTA          PTCLDY    88  35  15 SW13      29.95F
HANKSVILLE     PTCLDY    88  34  14 SE6       30.00F
MILFORD        PTCLDY    87  44  22 S14       30.00S
MOAB/CYNLANDS  CLEAR     86  31  13 CALM      30.00F
PRICE          PTCLDY    82  33  17 SE10      30.11S
ST GEORGE      MOCLDY    91  52  25 S15       29.89S
KANAB          MOCLDY    79  52  38 CALM      30.12S

$$

REGIONAL REPORTS     COLORADO/ARIZONA

CITY           SKY/WX    TMP DP  RH WIND       PRES   REMARKS
CRAIG, CO      PTCLDY    68  43  40 S9        30.15F
GRAND JUNCTION PTCLDY    82  39  21 S5        30.04F
RIFLE          PTCLDY    79  40  24 S7        30.11S
MONTROSE       CLEAR     77  44  30 S6        30.15S
CORTEZ         CLEAR     71  45  39 S5        30.16S
PAGE, AZ       PTCLDY    92  37  14 NE6       29.98S
GRAND CANYON   PTCLDY    73  48  41 CALM      30.26F
KINGMAN        PTCLDY    88  52  29 SE16      29.94F
FLAGSTAFF      PTCLDY    67  50  54 W3        30.30S

$$

REGIONAL REPORTS    NEVADA/IDAHO/WYOMING

CITY           SKY/WX    TMP DP  RH WIND       PRES   REMARKS
LAS VEGAS, NV  PTCLDY   102  39  11 SW13G23   29.75F HX  97
ELY            MOCLDY    82  36  19 S18       30.06F
ELKO           MOCLDY    84  34  16 W15G23    29.91S
POCATELLO, ID  TSTM      71  55  56 SW12G28   29.95R
BURLEY         MOCLDY    73  63  70 CALM      29.85F
EVANSTON, WY   MOCLDY    74  35  24 SW9       30.16F
ROCK SPRINGS   CLOUDY    77  30  17 S13       30.14S
KEMMERER       MOCLDY   N/A N/A N/A W5        30.18F

$$


USA.gov is the U.S. government's official web portal to all federal, state and local government web resources and services.